SCP
-0 -0 -0 -0 -0 -0 -0 -0 -0 -0 -0 -0 0 0 0 0 0 0 0 0 0 0
-0 -0 -0 -0 -0 -0 -0 -0 -0 -0 -0 -0 -0 -0 0 0 0 0 0 0 0 0
0 0 -0 -0 -0 -0 -0 -0 -0 -0 -0 -0 -0 -0 -0 0 0 0 0 0 0 0
0 0 0 0 0 -0 -0 -0 -0 -0 -0 -0 -0 -0 -0 -0 0 0 0 0 0 0
0 0 0 0 0 0 0 0 -0 -0 -0 -0 -0 -0 -0 -0 0 0 0 0 0 0
0 0 0 0 0 0 0 0 0 -0 -0 -0 -0 -0 -0 -0 0 0 0 0 0 0
0 0 0 0 0 0 0 -0 -0 -0 -0 -0 -0 -0 -0 -0 -0 0 0 0 0 0
0 0 0 0 0 0 0 0 0 0 -0 -0 -0 -0 0 0 0 0 0 0 0 0
0 -0 -0 0 0 0 0 0 0 0 0 0 0 0 0 0 0 0 0 0 0 0
0 0 -0 -0 0 0 0 0 0 0 0 0 0 0 0 0 0 0 0 0 0 0
0 -0 -0 -0 0 0 0 0 0 0 0 0 0 0 0 0 0 0 0 0 0 0
0 -0 -0 0 0 0 0 0 0 0 0 0 0 0 0 0 0 0 0 0 0 0
0 -0 -0 0 0 0 0 0 0 0 0 0 0 -0 0 0 0 0 0 0 0 0
0 -0 -0 0 0 0 0 0 0 0 0 0 0 0 0 0 0 -0 -0 0 0 0
Wind_Speed_500mb
63 66 66 67 70 73 79 79 76 79 80 83 79 73 69 68 65 55 52 59 66 83
63 64 68 70 70 72 72 77 80 78 79 81 81 78 71 71 69 65 62 57 63 60
66 66 68 69 70 71 72 75 78 81 81 79 81 80 75 71 69 69 69 66 66 63
66 67 68 71 68 70 74 76 80 82 80 82 80 80 81 71 69 69 69 66 64 70
70 71 71 71 72 71 74 74 79 83 82 79 80 79 80 80 68 68 69 69 66 67
74 74 75 76 75 73 75 78 78 82 82 80 77 78 78 81 70 68 70 68 69 70
77 76 78 78 76 75 75 80 82 81 81 78 76 74 74 81 77 69 71 71 67 70
78 78 80 81 77 74 75 79 82 82 80 77 75 71 70 75 81 76 74 73 72 69
76 81 83 83 77 73 76 76 79 78 78 78 75 71 66 67 78 81 75 78 77 71
77 84 84 83 76 73 76 76 77 76 75 78 75 73 65 64 74 82 77 75 76 74
78 84 86 80 74 73 74 74 76 76 76 79 78 71 64 61 72 78 74 72 64 63
78 84 84 76 72 71 72 71 73 74 76 77 77 69 62 58 70 77 74 69 61 51
83 83 77 71 69 68 68 70 71 73 73 75 76 66 60 55 61 75 75 67 62 51
79 75 71 68 65 66 67 68 69 72 72 74 73 68 58 55 53 63 73 64 61 55
Wind_Direction_500mb
346 345 344 342 339 337 335 335 333 331 330 330 331 325 317 309 294 288 283 271 267 263
340 338 338 337 336 335 333 330 329 328 327 326 327 327 321 315 309 291 284 283 288 267
332 332 333 332 332 332 333 333 330 325 324 324 324 325 322 318 312 305 287 281 279 288
326 328 328 329 329 328 329 330 331 329 323 321 322 322 322 316 314 307 299 283 278 278
324 324 325 325 324 324 325 326 328 329 325 319 319 321 320 317 313 311 303 292 281 275
322 321 322 322 321 319 320 322 323 325 325 321 318 318 317 319 310 310 303 295 282 275
321 319 321 321 319 317 317 318 320 321 322 320 317 316 318 320 312 306 303 297 285 274
316 316 319 320 318 315 315 316 318 319 319 320 316 316 319 321 316 306 304 298 289 276
313 314 316 317 316 314 314 317 318 320 320 320 317 317 318 320 319 306 303 299 293 283
312 313 315 315 314 313 314 317 318 320 321 320 318 317 318 319 320 308 303 301 294 284
308 311 314 314 312 311 314 317 320 320 320 318 318 315 318 319 320 311 306 302 290 284
307 310 313 312 310 311 314 318 320 323 322 320 320 317 318 317 320 319 312 304 293 286
307 308 310 310 308 309 312 315 319 321 324 323 323 322 319 317 319 327 320 306 299 289
307 306 306 306 305 307 310 313 316 319 322 324 326 323 321 320 318 329 327 311 302 300
Wind_Speed_850mb
63 66 66 67 70 73 79 79 76 79 80 83 79 73 69 68 65 55 52 59 66 83
63 64 68 70 70 72 72 77 80 78 79 81 81 78 71 71 69 65 62 57 63 60
66 66 68 69 70 71 72 75 78 81 81 79 81 80 75 71 69 69 69 66 66 63
66 67 68 71 68 70 74 76 80 82 80 82 80 80 81 71 69 69 69 66 64 70
70 71 71 71 72 71 74 74 79 83 82 79 80 79 80 80 68 68 69 69 66 67
74 74 75 76 75 73 75 78 78 82 82 80 77 78 78 81 70 68 70 68 69 70
77 76 78 78 76 75 75 80 82 81 81 78 76 74 74 81 77 69 71 71 67 70
78 78 80 81 77 74 75 79 82 82 80 77 75 71 70 75 81 76 74 73 72 69
76 81 83 83 77 73 76 76 79 78 78 78 75 71 66 67 78 81 75 78 77 71
77 84 84 83 76 73 76 76 77 76 75 78 75 73 65 64 74 82 77 75 76 74
78 84 86 80 74 73 74 74 76 76 76 79 78 71 64 61 72 78 74 72 64 63
78 84 84 76 72 71 72 71 73 74 76 77 77 69 62 58 70 77 74 69 61 51
83 83 77 71 69 68 68 70 71 73 73 75 76 66 60 55 61 75 75 67 62 51
79 75 71 68 65 66 67 68 69 72 72 74 73 68 58 55 53 63 73 64 61 55
Wind_Direction_850mb
346 345 344 342 339 337 335 335 333 331 330 330 331 325 317 309 294 288 283 271 267 263
340 338 338 337 336 335 333 330 329 328 327 326 327 327 321 315 309 291 284 283 288 267
332 332 333 332 332 332 333 333 330 325 324 324 324 325 322 318 312 305 287 281 279 288
326 328 328 329 329 328 329 330 331 329 323 321 322 322 322 316 314 307 299 283 278 278
324 324 325 325 324 324 325 326 328 329 325 319 319 321 320 317 313 311 303 292 281 275
322 321 322 322 321 319 320 322 323 325 325 321 318 318 317 319 310 310 303 295 282 275
321 319 321 321 319 317 317 318 320 321 322 320 317 316 318 320 312 306 303 297 285 274
316 316 319 320 318 315 315 316 318 319 319 320 316 316 319 321 316 306 304 298 289 276
313 314 316 317 316 314 314 317 318 320 320 320 317 317 318 320 319 306 303 299 293 283
312 313 315 315 314 313 314 317 318 320 321 320 318 317 318 319 320 308 303 301 294 284
308 311 314 314 312 311 314 317 320 320 320 318 318 315 318 319 320 311 306 302 290 284
307 310 313 312 310 311 314 318 320 323 322 320 320 317 318 317 320 319 312 304 293 286
307 308 310 310 308 309 312 315 319 321 324 323 323 322 319 317 319 327 320 306 299 289
307 306 306 306 305 307 310 313 316 319 322 324 326 323 321 320 318 329 327 311 302 300